Wind_Speed
21 19 18 17 21 19 15 17 14 14 15 12 9 7 6 6 7 9 10 12 13 14 15 13 13 14 17 19 19 18 18 21 20 20 19 20 21 21 20 19 20 16 15 14 13 8 15 22 29
23 22 20 17 13 14 17 17 15 16 18 13 10 10 9 9 11 13 13 13 13 15 15 14 14 17 18 19 18 19 21 23 21 22 23 21 19 19 20 21 21 17 17 14 12 12 12 9 19
26 23 21 16 17 19 20 20 19 19 21 16 14 13 11 13 13 15 15 13 15 15 16 17 17 18 19 19 19 20 23 24 26 26 24 24 23 22 23 23 21 21 22 20 17 16 17 16 15
27 23 22 19 23 23 23 22 20 21 21 17 15 14 15 15 15 16 15 15 16 17 18 20 20 19 19 21 22 25 27 27 28 28 28 27 26 26 27 26 26 25 22 22 21 22 23 21 21
28 26 24 23 24 24 24 25 22 22 21 19 18 18 18 17 16 16 15 16 17 19 19 20 20 21 24 23 25 27 29 31 31 31 31 31 32 32 30 29 30 28 27 27 26 26 25 26 29
33 30 28 26 24 25 24 25 23 24 22 22 22 21 21 18 18 18 18 19 19 21 20 22 23 24 25 28 30 31 33 33 33 34 34 34 34 35 35 34 33 33 33 32 31 30 31 31 30
37 34 32 30 29 29 27 25 24 25 24 25 26 25 24 21 20 20 22 23 24 25 24 26 29 30 31 34 36 37 38 37 36 34 35 35 36 36 35 36 36 37 37 38 38 38 37 37 37
39 37 35 34 35 30 25 28 26 28 27 29 31 28 27 24 22 23 24 26 27 28 30 32 33 34 35 38 40 42 42 40 39 37 36 34 35 36 38 40 39 39 41 42 43 46 46 45 46
41 40 39 37 35 34 30 31 30 30 31 31 33 32 30 28 27 26 27 29 30 32 34 35 38 39 40 41 43 41 39 37 37 38 37 38 40 43 43 43 43 43 44 48 50 49 48 48 48
46 43 41 39 38 40 37 35 33 35 34 35 37 37 34 33 31 31 34 34 35 37 37 39 40 40 39 38 36 36 37 38 38 41 39 41 43 47 48 47 49 51 54 57 55 53 53 54 54
49 49 45 46 44 45 41 37 36 36 37 39 41 39 38 37 36 37 39 38 40 41 39 38 38 36 33 32 32 35 37 40 44 46 46 47 50 52 53 54 56 58 58 57 57 59 60 62 62
56 53 49 51 50 50 46 42 42 40 41 44 43 44 43 43 42 41 41 41 38 33 34 34 32 31 31 31 36 38 41 45 49 51 54 53 54 54 55 55 53 54 58 60 61 64 66 65 66
61 58 55 57 54 53 51 48 47 46 45 47 48 48 46 45 44 43 43 38 38 36 36 37 39 40 37 41 45 46 49 54 57 61 59 56 56 55 56 58 59 60 62 64 67 66 66 67 67
58 62 59 61 58 55 55 53 52 51 48 49 49 48 48 47 46 46 45 41 40 37 38 41 42 46 46 50 52 52 56 59 62 62 59 55 59 61 61 63 65 67 68 70 70 69 66 66 67
52 50 62 63 63 59 57 56 57 53 54 54 53 50 48 46 41 40 43 38 38 39 42 41 46 48 50 54 55 58 60 64 66 65 62 60 64 64 65 67 69 70 73 72 72 69 67 67 69
54 52 52 64 62 60 57 58 57 58 55 56 53 48 45 38 37 34 39 47 50 51 49 48 49 50 53 57 59 61 62 68 68 66 66 68 67 67 67 68 70 71 74 72 71 70 69 71 74
54 53 55 58 61 59 58 62 59 57 57 56 50 46 44 41 42 43 44 48 51 54 55 55 56 57 59 62 62 64 67 70 70 70 71 72 70 68 69 71 73 78 79 76 74 73 73 76 79
61 55 55 58 57 60 62 66 61 60 59 56 50 49 49 50 53 56 57 57 57 60 61 62 63 64 65 66 68 68 72 73 73 73 72 71 73 75 77 79 80 80 83 79 77 77 79 82 83
63 60 56 58 59 58 62 65 60 60 53 54 54 52 55 55 50 56 60 62 60 61 63 68 69 69 69 71 72 75 78 78 79 77 76 77 79 81 82 83 82 84 84 80 80 82 84 88 89
64 63 61 61 60 62 59 56 58 58 56 57 56 56 55 55 58 63 65 65 65 66 66 67 70 72 74 76 78 80 81 81 79 80 81 82 84 83 84 85 88 89 85 83 84 86 89 92 95
74 69 64 61 64 65 59 57 57 58 58 60 59 60 61 66 68 69 68 69 66 66 67 69 71 73 77 80 81 82 81 82 83 84 84 85 86 88 87 90 91 88 86 88 90 92 94 97 98
74 73 70 63 60 60 67 62 61 64 63 64 63 65 69 72 76 75 75 73 72 72 72 74 77 79 79 80 82 84 83 83 84 84 86 89 91 89 91 94 93 89 92 93 95 98 100 101 99
84 72 77 72 64 61 63 61 70 64 63 65 70 77 80 81 82 80 79 77 76 78 79 78 78 80 83 84 83 83 82 81 84 87 90 91 92 94 97 95 92 94 96 98 100 102 105 103 101
88 84 86 84 78 73 74 74 61 67 72 70 72 76 80 84 84 83 83 83 83 84 86 88 90 92 90 88 86 84 86 88 90 90 91 93 96 98 96 96 97 99 101 103 106 107 106 101 102
89 90 90 84 80 69 76 71 61 68 81 82 81 84 86 82 80 83 85 87 89 89 91 93 91 90 88 86 88 88 90 94 93 94 97 99 99 98 99 99 100 103 106 108 110 108 105 103 101
93 92 92 89 79 75 75 76 73 78 85 85 84 82 80 80 83 85 85 87 88 90 90 92 91 91 89 89 89 93 97 99 100 100 101 101 101 101 101 103 105 109 111 111 108 106 103 102 99
96 93 93 87 88 83 80 80 82 86 86 87 88 87 90 93 94 94 94 93 95 96 94 94 93 92 91 92 97 101 102 102 105 103 103 103 103 105 106 110 112 113 114 112 109 105 103 100 100
100 99 97 94 94 91 87 85 84 84 87 88 90 92 94 98 100 101 101 100 99 98 95 94 91 91 95 101 104 107 109 107 106 106 106 107 108 112 115 116 116 116 113 109 105 103 101 99 97
97 97 99 98 96 97 97 96 93 93 94 96 96 98 100 100 100 100 99 99 100 100 99 96 97 100 104 109 110 107 107 107 108 109 110 111 116 117 119 117 116 111 109 106 103 101 100 99 100
102 101 100 99 96 99 99 96 100 98 99 99 101 103 103 102 100 101 103 101 98 98 100 103 105 107 109 110 110 108 108 109 112 114 117 118 119 119 117 114 111 109 105 104 103 101 100 101 104
Wind_Direction
223 228 230 228 229 230 240 241 218 216 206 207 210 216 230 247 264 275 296 306 318 325 325 328 330 334 339 341 343 342 345 345 348 351 360 359 1 3 4 5 2 7 3 356 0 354 266 250 245
232 226 230 226 212 229 222 220 207 213 212 211 223 232 244 262 274 284 299 306 312 314 315 322 319 322 331 333 328 331 333 336 343 348 351 354 357 356 359 356 350 347 344 345 334 330 323 314 264
230 231 226 225 228 227 225 219 206 210 214 216 231 243 261 271 286 294 298 301 304 307 311 314 312 318 324 328 325 325 326 326 332 337 338 340 344 346 346 347 348 345 341 333 321 311 307 301 290
233 232 230 223 224 224 221 212 214 213 219 225 235 254 265 276 286 290 296 296 298 302 308 308 305 307 315 320 323 321 320 321 325 327 330 330 332 334 335 334 335 336 335 331 327 318 305 296 291
237 231 231 226 226 231 226 226 223 222 228 234 244 254 264 271 277 284 284 291 293 295 298 301 301 302 307 313 319 322 321 318 316 318 319 320 322 324 327 327 327 326 326 325 324 322 315 304 295
238 234 230 231 233 233 228 228 231 232 234 241 247 256 264 267 276 276 277 282 287 289 292 299 304 310 310 308 308 311 312 315 313 312 313 314 317 321 323 322 321 321 320 319 317 317 315 312 304
238 238 234 231 235 237 234 235 237 243 245 249 255 261 265 265 275 269 269 277 284 285 289 294 297 301 303 303 301 303 307 311 309 307 307 310 315 317 317 316 317 314 314 315 317 316 314 311 308
241 239 238 232 235 237 239 240 241 246 248 252 258 261 264 266 273 271 274 280 285 286 289 293 298 301 301 299 301 304 303 304 305 303 305 308 309 310 311 313 311 309 312 312 313 312 311 309 307
239 240 237 237 237 238 239 242 245 250 252 256 259 262 266 270 271 272 274 277 281 282 285 289 293 295 297 299 300 301 299 300 305 311 314 313 311 309 307 306 306 307 308 309 308 307 307 306 304
238 239 240 241 237 238 237 242 247 251 255 258 262 264 267 269 272 274 275 275 277 280 283 287 291 294 297 297 296 301 309 315 316 318 310 307 308 306 306 304 301 304 306 307 307 304 302 302 303
238 238 240 240 238 240 242 245 245 251 255 258 260 265 267 269 270 271 273 278 282 284 284 283 287 293 296 298 304 307 312 311 311 309 305 302 303 304 303 302 301 302 306 305 305 306 306 305 304
239 240 239 241 241 242 246 242 246 248 254 257 261 263 264 266 267 271 276 281 285 283 283 285 284 286 291 295 296 298 305 308 309 305 305 305 305 303 303 305 306 306 308 310 310 310 309 307 306
238 239 239 241 241 242 242 244 250 249 250 257 258 261 264 265 268 272 276 278 286 281 280 284 289 284 290 293 294 301 307 309 310 311 311 309 307 306 305 307 308 309 310 310 309 310 310 308 307
251 241 238 242 243 244 246 248 248 250 255 257 262 262 264 269 273 275 277 280 276 276 282 287 289 290 293 290 293 300 304 307 308 309 310 309 306 307 309 309 310 310 310 311 312 311 309 309 308
249 253 245 243 244 245 248 251 250 257 255 256 258 264 270 273 282 283 287 281 276 282 291 293 291 288 289 290 295 299 302 307 308 308 305 303 305 308 308 308 309 311 312 312 311 310 309 311 312
246 249 255 246 246 246 247 250 254 256 259 260 263 269 278 284 286 283 294 294 284 289 283 282 282 287 289 291 295 297 302 305 305 306 306 303 304 306 306 307 308 312 314 311 310 308 310 311 312
245 248 249 253 251 249 249 251 254 257 260 262 266 273 277 278 278 280 281 281 278 281 280 281 281 285 287 290 293 297 302 304 302 304 304 305 304 303 304 307 309 312 314 311 308 310 311 311 312
239 247 252 249 253 254 253 253 257 259 262 265 270 270 273 275 279 279 281 282 280 281 284 285 285 284 287 290 292 296 300 303 303 301 303 304 303 304 304 306 308 311 312 310 308 309 310 311 312
241 243 248 251 249 253 257 260 260 261 264 268 266 266 269 276 279 277 276 277 280 281 282 284 285 287 289 291 292 295 298 300 300 300 300 301 303 304 304 307 309 311 312 309 308 308 308 309 311
236 244 247 246 247 248 248 256 256 256 259 261 263 267 271 270 272 274 273 275 277 280 282 282 284 287 289 290 292 294 295 298 298 298 298 299 301 303 305 307 309 311 310 308 307 307 308 309 308
238 237 240 245 248 245 248 252 253 254 255 257 261 266 267 271 269 271 276 278 279 280 281 283 284 286 287 288 290 291 293 295 296 297 298 299 301 303 306 308 309 309 307 307 307 306 306 307 307
244 240 241 239 246 253 249 246 252 258 260 263 265 264 265 268 272 272 275 275 277 280 285 286 286 286 289 289 290 291 293 294 294 295 297 299 301 303 306 308 307 306 307 307 306 306 307 306 305
241 244 249 242 245 250 256 257 250 253 260 264 264 264 264 265 268 271 274 276 278 280 282 284 285 287 290 290 292 292 293 293 294 296 298 299 301 304 305 305 305 306 306 306 306 306 305 305 304
242 242 241 241 249 251 257 259 253 262 257 261 263 263 266 269 270 274 277 277 278 279 281 283 285 285 288 289 291 292 294 296 297 298 299 300 302 302 303 303 305 305 306 305 304 304 303 302 301
243 241 243 245 248 242 251 254 248 258 257 259 260 263 267 273 275 275 275 277 278 280 281 283 286 286 288 289 290 294 298 299 298 298 299 299 300 301 303 304 304 304 303 303 303 301 301 301 300
243 245 246 245 246 251 250 253 249 252 253 257 263 267 271 272 273 274 276 277 279 282 283 284 285 286 287 289 293 296 298 299 299 298 298 299 301 302 302 303 303 302 302 302 301 301 300 300 299
242 245 247 249 247 249 250 250 251 255 257 258 261 264 266 270 272 275 277 279 281 282 283 284 286 287 289 292 294 297 298 297 297 299 300 301 300 300 301 301 302 302 302 301 300 300 300 299 298
243 245 247 249 249 250 252 253 254 254 258 261 263 265 267 270 271 273 275 279 281 283 285 288 288 287 289 292 294 295 297 298 298 299 298 298 299 299 301 301 301 301 301 300 299 298 298 298 297
245 246 248 248 250 251 250 252 256 259 261 263 265 268 270 271 274 278 281 282 283 284 287 287 286 288 290 293 295 296 296 296 296 297 297 297 298 299 300 300 300 299 299 298 298 298 298 298 298
246 248 249 251 254 254 254 255 258 261 261 264 265 267 271 273 275 277 279 283 285 284 282 285 288 291 292 293 294 294 294 295 296 296 296 297 297 298 297 297 297 298 298 298 298 298 298 299 299
Height
10859 10861 10865 10867 10870 10873 10875 10876 10877 10879 10881 10883 10883 10883 10883 10883 10882 10883 10882 10882 10882 10881 10880 10879 10878 10877 10876 10875 10874 10873 10872 10870 10868 10866 10865 10862 10861 10859 10857 10855 10853 10851 10849 10847 10846 10844 10843 10843 10843
10856 10858 10861 10865 10869 10868 10871 10872 10874 10877 10878 10880 10880 10880 10880 10880 10880 10880 10881 10880 10880 10879 10878 10877 10876 10875 10875 10874 10873 10871 10870 10868 10867 10865 10864 10862 10860 10858 10857 10854 10852 10850 10849 10847 10845 10843 10841 10840 10839
10851 10854 10858 10863 10864 10865 10867 10869 10871 10874 10876 10876 10877 10878 10878 10877 10878 10878 10878 10878 10877 10877 10876 10875 10874 10873 10872 10871 10870 10869 10868 10866 10864 10863 10862 10860 10859 10856 10854 10852 10850 10848 10846 10844 10843 10842 10840 10837 10835
10848 10850 10855 10859 10858 10861 10863 10866 10868 10870 10872 10872 10874 10874 10874 10875 10875 10875 10875 10875 10874 10874 10873 10872 10871 10871 10870 10869 10867 10866 10864 10863 10861 10860 10858 10857 10856 10854 10852 10850 10847 10845 10843 10842 10840 10837 10836 10833 10832
10843 10846 10850 10854 10856 10858 10860 10863 10865 10867 10868 10869 10870 10870 10871 10872 10873 10872 10872 10872 10872 10871 10870 10869 10868 10868 10867 10866 10864 10862 10861 10859 10857 10855 10854 10852 10850 10849 10848 10846 10844 10841 10840 10837 10835 10834 10832 10829 10826
10838 10842 10845 10849 10853 10853 10856 10859 10861 10863 10864 10864 10865 10867 10868 10869 10870 10869 10869 10869 10868 10867 10867 10865 10864 10864 10863 10862 10861 10859 10856 10854 10853 10851 10849 10847 10845 10842 10841 10839 10837 10835 10833 10831 10829 10828 10826 10824 10822
10832 10836 10841 10845 10845 10848 10851 10855 10856 10858 10861 10861 10860 10863 10864 10866 10866 10866 10866 10865 10864 10863 10862 10861 10860 10860 10859 10857 10855 10853 10852 10849 10847 10846 10843 10841 10839 10837 10835 10832 10830 10828 10826 10824 10822 10820 10818 10816 10813
10825 10830 10835 10839 10839 10843 10848 10849 10852 10852 10856 10856 10854 10859 10860 10862 10863 10863 10862 10861 10860 10858 10857 10856 10855 10855 10854 10852 10850 10848 10845 10843 10841 10840 10838 10835 10833 10830 10827 10825 10824 10821 10820 10817 10815 10812 10810 10806 10804
10819 10823 10828 10832 10835 10837 10841 10843 10845 10846 10848 10850 10849 10851 10854 10857 10858 10858 10857 10855 10854 10853 10851 10850 10849 10849 10848 10846 10843 10841 10838 10836 10835 10834 10833 10830 10827 10824 10822 10818 10815 10813 10811 10809 10806 10803 10799 10796 10793
10811 10816 10821 10827 10829 10827 10833 10836 10840 10840 10842 10843 10843 10845 10849 10851 10852 10852 10851 10849 10847 10846 10845 10843 10842 10842 10840 10839 10836 10834 10833 10832 10830 10828 10825 10823 10820 10816 10813 10811 10807 10804 10801 10798 10794 10792 10789 10787 10783
10805 10806 10814 10817 10821 10819 10826 10829 10832 10834 10835 10836 10835 10838 10841 10843 10844 10845 10843 10842 10840 10839 10837 10836 10836 10835 10834 10832 10831 10829 10827 10825 10822 10820 10817 10813 10811 10808 10804 10800 10797 10794 10790 10787 10783 10780 10776 10772 10770
10793 10798 10805 10806 10812 10813 10818 10821 10823 10827 10826 10825 10827 10829 10833 10835 10837 10837 10836 10835 10832 10831 10828 10827 10829 10828 10826 10826 10823 10821 10819 10817 10814 10811 10808 10804 10801 10797 10794 10791 10786 10783 10779 10774 10770 10766 10763 10759 10754
10782 10789 10795 10793 10802 10806 10807 10813 10815 10816 10817 10817 10818 10820 10823 10825 10828 10828 10827 10827 10823 10821 10821 10822 10818 10819 10819 10815 10813 10811 10809 10807 10803 10799 10796 10792 10788 10785 10781 10778 10774 10771 10768 10763 10758 10754 10749 10743 10738
10771 10779 10784 10781 10792 10798 10800 10805 10805 10805 10809 10809 10807 10811 10813 10815 10817 10819 10818 10817 10813 10811 10812 10814 10811 10807 10806 10804 10802 10801 10798 10794 10793 10790 10786 10781 10777 10774 10770 10765 10761 10757 10754 10749 10745 10740 10735 10729 10724
10761 10770 10773 10775 10780 10787 10791 10797 10794 10798 10799 10798 10798 10801 10803 10804 10807 10809 10808 10805 10803 10802 10803 10802 10799 10798 10794 10792 10792 10789 10787 10783 10780 10779 10777 10773 10766 10763 10758 10753 10748 10744 10738 10734 10729 10725 10720 10714 10709
10752 10760 10764 10765 10770 10777 10782 10783 10786 10787 10789 10788 10790 10791 10793 10794 10796 10799 10796 10792 10791 10791 10792 10788 10786 10785 10784 10782 10781 10779 10777 10774 10769 10765 10762 10758 10756 10751 10745 10740 10736 10732 10726 10720 10715 10710 10705 10699 10693
10742 10749 10753 10755 10761 10767 10772 10770 10777 10779 10779 10778 10780 10781 10781 10782 10784 10791 10784 10781 10777 10775 10778 10777 10776 10773 10772 10772 10769 10767 10765 10763 10759 10753 10749 10743 10741 10736 10732 10728 10721 10716 10710 10705 10699 10694 10689 10683 10678
10728 10735 10741 10745 10751 10757 10760 10760 10768 10768 10770 10769 10770 10770 10769 10770 10776 10775 10771 10771 10770 10770 10767 10766 10765 10762 10760 10758 10755 10753 10751 10750 10747 10741 10736 10731 10724 10719 10716 10712 10707 10701 10694 10688 10682 10677 10671 10665 10660
10718 10723 10729 10734 10739 10744 10749 10752 10759 10758 10761 10758 10759 10759 10758 10760 10765 10761 10757 10759 10761 10759 10757 10754 10752 10750 10748 10746 10742 10739 10735 10733 10730 10728 10724 10717 10711 10705 10699 10692 10689 10684 10677 10671 10665 10660 10654 10646 10639
10703 10710 10714 10721 10726 10732 10738 10742 10745 10749 10749 10747 10747 10748 10748 10750 10748 10745 10743 10744 10746 10747 10745 10743 10741 10739 10735 10731 10728 10723 10719 10716 10713 10711 10706 10700 10696 10692 10686 10679 10672 10665 10658 10652 10647 10641 10634 10626 10616
10689 10695 10698 10708 10715 10717 10725 10732 10735 10736 10736 10737 10738 10738 10735 10731 10731 10730 10731 10732 10732 10733 10733 10731 10729 10726 10722 10718 10714 10709 10705 10701 10696 10691 10686 10680 10677 10674 10668 10662 10655 10647 10640 10634 10627 10621 10614 10607 10597
10674 10680 10685 10694 10699 10705 10713 10722 10722 10722 10725 10724 10729 10726 10720 10716 10714 10717 10719 10719 10719 10719 10717 10715 10713 10711 10707 10703 10698 10694 10690 10685 10680 10676 10669 10664 10660 10655 10649 10642 10635 10627 10621 10613 10607 10599 10591 10584 10577
10659 10664 10671 10676 10684 10694 10701 10708 10713 10710 10712 10714 10714 10705 10699 10697 10699 10703 10704 10705 10706 10704 10701 10699 10696 10693 10690 10686 10681 10675 10671 10668 10664 10659 10654 10647 10642 10635 10628 10621 10615 10607 10599 10591 10583 10575 10568 10561 10552
10644 10648 10651 10656 10667 10681 10684 10690 10706 10702 10699 10698 10694 10682 10682 10683 10686 10688 10689 10690 10689 10687 10685 10683 10679 10676 10672 10668 10663 10658 10654 10649 10644 10640 10635 10629 10622 10614 10607 10601 10594 10585 10576 10568 10560 10552 10543 10536 10529
10626 10630 10634 10640 10652 10667 10669 10676 10692 10691 10678 10674 10673 10673 10673 10671 10670 10670 10671 10671 10671 10670 10668 10665 10660 10656 10654 10651 10646 10641 10636 10630 10624 10619 10614 10607 10600 10592 10585 10578 10570 10562 10553 10546 10538 10529 10520 10513 10504
10605 10611 10620 10630 10640 10649 10655 10663 10666 10662 10661 10659 10661 10662 10659 10655 10655 10653 10653 10653 10653 10651 10648 10644 10641 10638 10635 10632 10628 10623 10617 10610 10604 10598 10592 10584 10576 10569 10562 10556 10548 10538 10529 10521 10512 10504 10495 10487 10478
10592 10604 10602 10613 10623 10630 10639 10646 10645 10643 10646 10646 10646 10645 10643 10637 10637 10636 10636 10636 10636 10633 10628 10625 10623 10620 10616 10613 10608 10602 10596 10589 10583 10575 10568 10561 10553 10547 10540 10534 10525 10514 10505 10496 10487 10478 10470 10461 10453
10578 10579 10590 10598 10605 10612 10620 10624 10628 10630 10628 10628 10626 10623 10621 10618 10617 10618 10618 10618 10616 10613 10610 10607 10605 10601 10597 10593 10587 10580 10573 10565 10558 10552 10546 10538 10531 10524 10517 10508 10499 10488 10479 10471 10463 10455 10446 10438 10429
10551 10560 10567 10575 10585 10593 10604 10610 10612 10611 10609 10608 10608 10605 10601 10598 10596 10596 10596 10593 10592 10594 10592 10587 10584 10581 10577 10571 10563 10556 10548 10541 10535 10528 10522 10515 10508 10500 10490 10481 10470 10463 10454 10445 10436 10429 10420 10412 10403
10538 10547 10555 10563 10571 10572 10581 10593 10591 10591 10591 10588 10585 10585 10584 10581 10580 10574 10573 10574 10576 10574 10569 10567 10563 10559 10554 10547 10540 10532 10524 10516 10510 10503 10497 10489 10482 10474 10465 10457 10445 10437 10427 10419 10410 10402 10394 10385 10377